Location: Azenweiler
(47.8027°N, 9.4096°E)
Time: 03:10:09
(UTC+00:00)

Cosmos 1626 Rocket - Pass Details

Date: 21 March 2026
Orbit: 596 x 624 km, 82.5° (Epoch: 13 April)

Event Time Altitude Azimuth Distance (km) Brightness Sun altitude
Rises 04:35:12 0° 335° (NNW) 2,886 6.8 -8.9°
Reaches altitude 10° 04:38:06 10° 315° (NW) 1,969 5.8 -8.4°
Maximum altitude 04:40:50 17° 276° (W) 1,573 5.0 -8.0°
Drops below altitude 10° 04:43:32 10° 236° (WSW) 1,948 5.6 -7.5°
Sets 04:46:24 0° 216° (SW) 2,840 6.5 -7.1°
